Regional Weather Roundup
Issued by NWS

Home | Current Version | Previous Version | Graphics & Text | Print | Product List | Glossary On
Versions: 1 2 3 4 5 6 7 8 9 10 11 12 13 14 15 16 17 18 19 20 21 22 23 24 25 26 27 28 29 30 31 32 33 34 35 36 37 38 39 40 41 42 43 44 45 46 47 48 49 50
000
ASUS43 KBIS 061802
RWRND

NORTH DAKOTA REGIONAL WEATHER ROUNDUP
NATIONAL WEATHER SERVICE BISMARCK ND
1200 PM CST SAT FEB 06 2016

NOTE: "FAIR" INDICATES FEW OR NO CLOUDS BELOW 12,000 FEET WITH NO
SIGNIFICANT WEATHER AND/OR OBSTRUCTIONS TO VISIBILITY.


NDZ001>003-009>011-017-061900-
NORTHWEST NORTH DAKOTA

CITY           SKY/WX    TMP DP  RH WIND       PRES   REMARKS
WILLISTON      PTSUNNY   45  28  51 SW12G17   29.68F
6HR MIN TEMP:  32; 6HR MAX TEMP:  45;

MINOT          CLOUDY    48  26  42 SW20G28   29.63F
MINOT AFB      CLOUDY    47  29  48 W20G29    29.62F
$$

NDZ018>021-031>035-040>046-061900-
SOUTHWEST NORTH DAKOTA

CITY           SKY/WX    TMP DP  RH WIND       PRES   REMARKS
BISMARCK       CLOUDY    47  27  45 SW6       29.77F
6HR MIN TEMP:  31; 6HR MAX TEMP:  47;

DICKINSON      CLOUDY    46  22  38 W21       29.75F
GARRISON         N/A     43  26  51 W18       29.69F
6HR MIN TEMP:  30; 6HR MAX TEMP:  43;

HETTINGER ARPT CLOUDY    45  20  36 W14       29.84F
$$

NDZ004>008-012>016-024-026-027-054-061900-
NORTHEAST NORTH DAKOTA

CITY           SKY/WX    TMP DP  RH WIND       PRES   REMARKS
GRAND FORKS    CLOUDY    33  26  75 S15       29.73F
GRND FRKS AFB  CLOUDY    34  27  75 S12       29.71F
DEVILS LAKE    LGT RAIN  37  29  72 SW14      29.67F
$$

NDZ022-023-025-028>030-036>039-047>053-061900-
SOUTHEAST NORTH DAKOTA

CITY           SKY/WX    TMP DP  RH WIND       PRES   REMARKS
FARGO          MOSUNNY   35  27  72 S15       29.79F
6HR MIN TEMP:  23; 6HR MAX TEMP:  35;

JAMESTOWN      PTSUNNY   41  26  55 W20       29.73F
$$




USA.gov is the U.S. government's official web portal to all federal, state and local government web resources and services.